Current Version              Previous Version:    01  02  03  04  05  06  07  08  09  10  11  12  13  14  15  16  17  18  19  20  21  22  23  24  25  26  27  28  29  30  
   31  32  33  34  35  36  37  38  39  40  41  42  43  44  45  46  47  48  49  50  51  52  53  54  55  56  57  58  59  60  

[Printable]
354
ASUS44 KFWD 011301
RWRTX
NORTH TEXAS HOURLY WEATHER ROUNDUP
NATIONAL WEATHER SERVICE FORT WORTH TX
800 AM CDT WED OCT 01 2014

NOTE: "FAIR" INDICATES FEW OR NO CLOUDS BELOW 12,000 FEET WITH NO
SIGNIFICANT WEATHER AND/OR OBSTRUCTIONS TO VISIBILITY.

TXZ118-119-011400-
DALLAS/FORT WORTH METROPLEX

CITY           SKY/WX    TMP DP  RH WIND       PRES   REMARKS
DFW AIRPORT    MOCLDY    74  70  87 S10       29.81R
DALLAS LOVE    PTCLDY    74  70  87 S8        29.81R
FTW MEACHAM    MOCLDY    74  70  87 S10       29.80R
DAL-EXECUTIVE  CLOUDY    76  70  82 S7        29.81R
FTW-ALLIANCE   PTCLDY    72  69  90 S5        29.80R
FTW-NAS-JRB    MOCLDY    76  69  79 S13       29.85R
FTW-SPINKS     MOCLDY    73  70  88 S9        29.83R
ARLINGTON      CLOUDY    74  69  85 S9        29.82R
GRAND PRAIRIE  CLOUDY    73  68  83 MISG      29.83R
ADDISON        PTCLDY    73  68  83 SE8       29.81R
MESQUITE       CLOUDY    73  72  94 S12       29.83R
LANCASTER      CLOUDY    74  69  83 S7        29.83R
$$

TXZ091>094-102>105-117-120-121-131>134-011400-
NORTH CENTRAL TEXAS

CITY           SKY/WX    TMP DP  RH WIND       PRES   REMARKS
SHRMAN/DENISON CLEAR     72  68  87 S9        29.82S FOG
GAINESVILLE    CLOUDY    72  68  89 SE8       29.82R
BRIDGEPORT     CLEAR     73  66  80 S5        29.82R
DECATUR        CLEAR     72  69  91 S9        29.81R
DENTON         CLEAR     72  69  90 SE7       29.81R
MCKINNEY       MOCLDY    73  70  90 S9        29.82R
GREENVILLE     CLOUDY    73  70  88 S8        29.83R
ROCKWALL       CLOUDY    73  72  96 S10G18    29.82R
TERRELL        CLOUDY    76  71  85 S10       29.83R
WAXAHACHIE     CLOUDY    74  72  93 S12       29.84R
CLEBURNE       CLOUDY    73  72  94 S13       29.84R
GRANBURY       MOCLDY    75  69  84 S7        29.82R
$$

TXZ083>090-098>101-113>116-127>130-139>142-154-155-011400-
WESTERN NORTH TEXAS

CITY           SKY/WX    TMP DP  RH WIND       PRES   REMARKS
WICHITA FALLS  PTCLDY    73  64  73 S13       29.75R
WF-KICKAPOO    CLEAR     70  64  81 SE10      29.77S
VERNON         CLEAR     70  61  73 S5        29.76R
ABILENE        MOCLDY    72  63  73 S13       29.81R
ABILENE-DYESS  PTCLDY    71  62  73 S7        29.79R
MINERAL WELLS  CLEAR     69  66  90 SE9       29.80R FOG
STEPHENVILLE   CLOUDY    72  68  87 S9        29.85S
COMANCHE       CLEAR     72  68  88 S9        29.83R
COLEMAN        CLEAR     67  63  85 S3        29.84R
$$

TXZ143>147-156>162-174-175-011400-
CENTRAL TEXAS

CITY           SKY/WX    TMP DP  RH WIND       PRES   REMARKS
WACO           CLOUDY    76  71  85 S7        29.83R
WACO-MCGREGOR  CLOUDY    75  66  73 S8        29.84R
CORSICANA      CLOUDY    76  72  87 S6        29.83S
MEXIA          CLOUDY    74  73  96 S7        29.82S
HEARNE         CLOUDY    75  73  95 CALM      29.84R
CAMERON        CLOUDY    75  73  94 CALM      29.82S
TEMPLE         PTCLDY    73  66  78 SE7       29.82R
KILLEEN        MOCLDY    73  70  88 SE6       29.83R
KILLEEN-SKYLRK MOCLDY    73  66  78 SE7       29.82R
HAMILTON       CLEAR     73  70  89 S8        29.85R
LAMPASAS       MOCLDY    73  71  92 S3        29.84R
$$

TXZ095>097-106>112-122>126-135>138-148>153-164>167-011400-
EAST TEXAS

CITY           SKY/WX    TMP DP  RH WIND       PRES   REMARKS
PARIS          MOCLDY    70  63  78 S5        29.84R
SULPHUR SPRNGS MOCLDY    74  72  92 S8        29.85R FOG
MOUNT PLEASANT CLOUDY    71  70  99 S5        29.85S
MINEOLA        CLOUDY    75  73  94 S5        29.84S
TYLER          CLOUDY    75  73  93 S8        29.84R
LONGVIEW       MOCLDY    74  71  91 SE3       29.84S FOG
MARSHALL       CLOUDY    73  71  92 CALM      29.87S
ATHENS         CLOUDY    73  72  94 S3        29.83R
PALESTINE      CLOUDY    75  75  99 SE3       29.85R
JACKSONVILLE   CLOUDY    75  74  96 S5        29.86S FOG
HENDERSON      CLOUDY    74  74  98 CALM      29.85S
NACOGDOCHES    CLOUDY    73  72  94 SE5       29.85R
LUFKIN         LGT RAIN  77  74  90 E3        29.84R FOG
$$

SUPPLEMENTAL OBSERVATIONS (CENTRAL)

CITY           SKY/WX    TMP DP  RH WIND       PRES   REMARKS
$$

SUPPLEMENTAL OBSERVATIONS (WEST)

CITY           SKY/WX    TMP DP  RH WIND       PRES   REMARKS
$$

SUPPLEMENTAL OBSERVATIONS (EAST)

CITY           SKY/WX    TMP DP  RH WIND       PRES   REMARKS
$$

SUPPLEMENTAL OBSERVATIONS ARE A COLLECTION OF AUTOMATED INSTRUMENTS
THAT ARE MAINTAINED BY A VARIETY OF FEDERAL AND STATE AGENCIES.
CERTAIN ELEMENTS...SUCH AS HUMIDITY VALUES AND SUSTAINED WIND
SPEEDS...MAY BE APPROXIMATED.